• Em Portugal
  • Lista de países
  • Para 7 dias
  • Temperatura da água
  • Mapas de satélite
  • Mapa do tempo
  • Widgets de tempo
  • user-avatar
    Iniciar Sessão

    Previsão horária em Volova Gora

    Hoje, 12 Novembro, Segunda-feira

    Tempo Temperatura Precipitação Vento Pressão Humidade
    00:00 -1°C° 0 mm 7 m/s 759 mmHg 75%
    01:00 -2°C° 0 mm 7 m/s 759 mmHg 74%
    02:00 0°C° 0 mm 5 m/s 759 mmHg 76%
    03:00 0°C° 0 mm 5 m/s 759 mmHg 76%
    04:00 -2°C° 0 mm 6 m/s 759 mmHg 75%
    05:00 -2°C° 0 mm 6 m/s 759 mmHg 74%
    06:00 -2°C° 0 mm 6 m/s 759 mmHg 75%
    07:00 -3°C° 0 mm 6 m/s 759 mmHg 76%
    08:00 -3°C° 0 mm 6 m/s 759 mmHg 76%
    09:00 -3°C° 0 mm 6 m/s 760 mmHg 75%
    10:00 -3°C° 0 mm 6 m/s 760 mmHg 74%
    11:00 -2°C° 0 mm 6 m/s 760 mmHg 73%
    12:00 -2°C° 0 mm 6 m/s 760 mmHg 73%
    13:00 -2°C° 0 mm 6 m/s 760 mmHg 72%
    14:00 -2°C° 0 mm 7 m/s 760 mmHg 74%
    15:00 -2°C° 0 mm 6 m/s 760 mmHg 73%
    16:00 -2°C° 0 mm 6 m/s 760 mmHg 73%
    17:00 -2°C° 0 mm 6 m/s 760 mmHg 72%
    18:00 -2°C° 0 mm 6 m/s 760 mmHg 71%
    19:00 -2°C° 0 mm 6 m/s 760 mmHg 70%
    20:00 -2°C° 0 mm 6 m/s 760 mmHg 69%
    21:00 -2°C° 0 mm 6 m/s 760 mmHg 69%
    22:00 -2°C° 0 mm 6 m/s 760 mmHg 68%
    23:00 -2°C° 0 mm 6 m/s 760 mmHg 68%

    Amanhã, 13 Novembro, Terça-feira

    Tempo Temperatura Precipitação Vento Pressão Humidade
    00:00 -2°C° 0 mm 6 m/s 760 mmHg 68%
    01:00 -3°C° 0 mm 6 m/s 760 mmHg 68%
    02:00 -3°C° 0 mm 7 m/s 759 mmHg 68%
    03:00 -3°C° 0 mm 7 m/s 759 mmHg 69%
    04:00 -3°C° 0 mm 7 m/s 759 mmHg 70%
    05:00 -3°C° 0 mm 7 m/s 759 mmHg 71%
    06:00 -3°C° 0 mm 7 m/s 758 mmHg 71%
    07:00 -3°C° 0 mm 7 m/s 758 mmHg 71%
    08:00 -3°C° 0 mm 7 m/s 758 mmHg 71%
    09:00 -2°C° 0 mm 7 m/s 758 mmHg 70%
    10:00 -2°C° 0 mm 7 m/s 758 mmHg 68%
    11:00 -1°C° 0 mm 7 m/s 757 mmHg 66%
    12:00 -1°C° 0 mm 7 m/s 757 mmHg 66%
    13:00 0°C° 0 mm 7 m/s 757 mmHg 65%
    14:00 0°C° 0 mm 7 m/s 756 mmHg 65%
    15:00 0°C° 0 mm 7 m/s 756 mmHg 65%
    16:00 -1°C° 0 mm 7 m/s 756 mmHg 65%
    17:00 -1°C° 0 mm 7 m/s 755 mmHg 66%
    18:00 -1°C° 0 mm 7 m/s 755 mmHg 65%
    19:00 -1°C° 0 mm 7 m/s 754 mmHg 65%
    20:00 -1°C° 0 mm 6 m/s 754 mmHg 64%
    21:00 -1°C° 0.1 mm 7 m/s 753 mmHg 65%
    22:00 -1°C° 0.1 mm 7 m/s 753 mmHg 66%
    23:00 -1°C° 0.1 mm 7 m/s 752 mmHg 67%

    Depois de amanhã, 14 Novembro, Quarta-feira

    Tempo Temperatura Precipitação Vento Pressão Humidade
    00:00 -1°C° 0.4 mm 7 m/s 752 mmHg 68%
    01:00 -1°C° 0.4 mm 7 m/s 751 mmHg 69%
    02:00 -1°C° 0.4 mm 7 m/s 750 mmHg 70%
    03:00 -2°C° 1.4 mm 7 m/s 750 mmHg 77%
    04:00 -2°C° 1.4 mm 7 m/s 749 mmHg 83%
    05:00 -2°C° 1.4 mm 6 m/s 749 mmHg 89%
    06:00 -2°C° 0.9 mm 6 m/s 749 mmHg 89%
    07:00 -1°C° 0.9 mm 6 m/s 748 mmHg 90%
    08:00 0°C° 0.9 mm 5 m/s 748 mmHg 91%
    09:00 0°C° 0.2 mm 5 m/s 748 mmHg 91%
    10:00 +1°C° 0.2 mm 5 m/s 748 mmHg 92%
    11:00 +1°C° 0.2 mm 5 m/s 748 mmHg 92%
    12:00 +3°C° 0.1 mm 4 m/s 748 mmHg 93%
    13:00 +3°C° 0.1 mm 4 m/s 748 mmHg 93%
    14:00 +3°C° 0.1 mm 4 m/s 748 mmHg 94%
    15:00 +3°C° 0.2 mm 4 m/s 749 mmHg 94%
    16:00 +3°C° 0.2 mm 3 m/s 749 mmHg 95%
    17:00 +3°C° 0.2 mm 3 m/s 749 mmHg 95%
    18:00 +3°C° 0.1 mm 3 m/s 750 mmHg 94%
    19:00 +3°C° 0.1 mm 3 m/s 750 mmHg 94%
    20:00 +3°C° 0.1 mm 3 m/s 751 mmHg 94%
    21:00 +3°C° 0.1 mm 3 m/s 751 mmHg 93%
    22:00 +2°C° 0.1 mm 3 m/s 752 mmHg 93%
    23:00 +2°C° 0.1 mm 3 m/s 752 mmHg 92%

    15 Novembro, Quinta-feira

    Tempo Temperatura Precipitação Vento Pressão Humidade
    00:00 +2°C° 0.1 mm 3 m/s 753 mmHg 92%
    01:00 +2°C° 0.1 mm 3 m/s 753 mmHg 92%
    02:00 +1°C° 0.1 mm 3 m/s 754 mmHg 92%
    03:00 +1°C° 0 mm 3 m/s 754 mmHg 92%
    04:00 +2°C° 0 mm 2 m/s 755 mmHg 92%
    05:00 +2°C° 0 mm 2 m/s 755 mmHg 92%
    06:00 +2°C° 0 mm 2 m/s 756 mmHg 92%
    07:00 +2°C° 0 mm 2 m/s 757 mmHg 92%
    08:00 +2°C° 0 mm 2 m/s 757 mmHg 92%
    09:00 +3°C° 0 mm 1 m/s 758 mmHg 91%
    10:00 +3°C° 0 mm 1 m/s 759 mmHg 90%
    11:00 +4°C° 0 mm 1 m/s 759 mmHg 88%
    12:00 +4°C° 0 mm 1 m/s 759 mmHg 87%
    13:00 +4°C° 0 mm 1 m/s 760 mmHg 86%
    14:00 +4°C° 0 mm 1 m/s 760 mmHg 85%
    15:00 +4°C° 0 mm 1 m/s 760 mmHg 87%
    16:00 +4°C° 0 mm 1 m/s 761 mmHg 89%
    17:00 +3°C° 0 mm 1 m/s 761 mmHg 92%
    18:00 +3°C° 0 mm 1 m/s 761 mmHg 92%
    19:00 +3°C° 0 mm 1 m/s 762 mmHg 92%
    20:00 +3°C° 0 mm 1 m/s 762 mmHg 92%
    21:00 +3°C° 0 mm 1 m/s 763 mmHg 92%
    22:00 +3°C° 0 mm 1 m/s 763 mmHg 92%
    23:00 +3°C° 0 mm 1 m/s 763 mmHg 92%

    16 Novembro, Sexta-feira

    Tempo Temperatura Precipitação Vento Pressão Humidade
    00:00 +3°C° 0 mm 1 m/s 763 mmHg 92%
    01:00 +3°C° 0 mm 1 m/s 764 mmHg 92%
    02:00 +3°C° 0 mm 1 m/s 764 mmHg 93%
    03:00 +2°C° 0 mm 0 m/s 764 mmHg 93%
    04:00 +2°C° 0 mm 0 m/s 764 mmHg 93%
    05:00 +2°C° 0 mm 0 m/s 764 mmHg 93%
    06:00 +2°C° 0 mm 0 m/s 765 mmHg 93%
    07:00 +1°C° 0 mm 0 m/s 765 mmHg 93%
    08:00 +1°C° 0 mm 0 m/s 765 mmHg 93%
    09:00 +2°C° 0 mm 0 m/s 765 mmHg 91%
    10:00 +3°C° 0 mm 0 m/s 766 mmHg 88%
    11:00 +3°C° 0 mm 0 m/s 766 mmHg 85%
    12:00 +4°C° 0 mm 0 m/s 766 mmHg 83%
    13:00 +4°C° 0 mm 0 m/s 766 mmHg 82%
    14:00 +4°C° 0 mm 0 m/s 766 mmHg 80%
    15:00 +4°C° 0 mm 0 m/s 766 mmHg 82%
    16:00 +3°C° 0 mm 0 m/s 766 mmHg 84%
    17:00 +3°C° 0 mm 0 m/s 766 mmHg 86%
    18:00 +3°C° 0 mm 0 m/s 766 mmHg 86%
    19:00 +4°C° 0 mm 1 m/s 766 mmHg 86%
    20:00 +3°C° 0 mm 1 m/s 766 mmHg 86%
    21:00 +3°C° 0 mm 1 m/s 766 mmHg 87%
    22:00 +3°C° 0 mm 1 m/s 766 mmHg 87%
    23:00 +3°C° 0 mm 1 m/s 766 mmHg 88%

    17 Novembro, Sábado

    Tempo Temperatura Precipitação Vento Pressão Humidade
    00:00 +3°C° 0 mm 1 m/s 766 mmHg 89%
    01:00 +3°C° 0 mm 1 m/s 766 mmHg 89%
    02:00 +2°C° 0 mm 1 m/s 766 mmHg 90%
    03:00 +2°C° 0 mm 1 m/s 766 mmHg 90%
    04:00 +2°C° 0 mm 1 m/s 766 mmHg 90%
    05:00 +2°C° 0 mm 1 m/s 766 mmHg 90%
    06:00 +2°C° 0 mm 1 m/s 766 mmHg 91%
    07:00 +1°C° 0 mm 2 m/s 765 mmHg 92%
    08:00 +1°C° 0 mm 2 m/s 765 mmHg 92%
    09:00 +2°C° 0 mm 2 m/s 765 mmHg 90%
    10:00 +2°C° 0 mm 2 m/s 765 mmHg 87%
    11:00 +3°C° 0 mm 2 m/s 765 mmHg 84%
    12:00 +3°C° 0 mm 3 m/s 765 mmHg 83%
    13:00 +3°C° 0 mm 3 m/s 764 mmHg 82%
    14:00 +3°C° 0 mm 3 m/s 764 mmHg 81%
    15:00 +3°C° 0 mm 3 m/s 763 mmHg 84%
    16:00 +2°C° 0 mm 3 m/s 763 mmHg 87%
    17:00 +2°C° 0 mm 3 m/s 763 mmHg 91%
    18:00 +2°C° 0 mm 3 m/s 762 mmHg 91%
    19:00 +2°C° 0 mm 3 m/s 762 mmHg 92%
    20:00 +2°C° 0 mm 3 m/s 761 mmHg 92%
    21:00 +1°C° 0 mm 4 m/s 761 mmHg 92%
    22:00 +1°C° 0 mm 4 m/s 760 mmHg 92%
    23:00 +3°C° 0 mm 4 m/s 760 mmHg 91%
    Mostrar mais